User: anonymous   Login
Location: Unspecified
(0.0000°N, 0.0000°E)
Time: 14:59:19
(UTC+00:00)
Language:

ISS - Orbit

View from above orbital plane
View from above orbital plane
View from above satellite
View from above satellite

Ground track
Ground track

The orbit data is extracted from the following two-line orbital elements,

1 25544U 98067A   18146.40172945  .00016717  00000-0  10270-3 0  9043
2 25544  51.6398 127.3193 0003699 121.0768 239.0747 15.54075188 35129
Epoch (UTC): 26 May 2018 09:38:29
Eccentricity: 0.0003699
inclination: 51.6398°
perigee height: 402 km
apogee height: 407 km
right ascension of ascending node: 127.3193°
argument of perigee: 121.0768°
revolutions per day: 15.54075188
mean anomaly at epoch: 239.0747°
orbit number at epoch: 3512

The dashed part of the orbit path shows where the satellite is in the earth's shadow,  

DLR